Boeing Field King County International Airport
KBFI : now visible

Airfield :











YOU CAN JOIN US ON...

 
LOGIN :

Register | Disclaimer

   EN    FR    IT 

 









Legend :    VFR   Marginal VFR   IFR   Intensive IFR   Very Intensive IFR
Visi :
Ceiling :
>= 8 km
>= 3000ft
5 to 8 km
1000 to 3000 ft
1500m to 5 km
500 to 1000 ft
800 to 1500m
200 to 500 ft
< 800m
< 200 ft
Symbols :   Thunderstorms  Fog  Heavy snow  Heavy precipitations  Wind > 20 kt






- Airport Elevation : 21 ft
- IATA code : BFI


KBFI - Boeing Field King County International

CURRENT METAR :
  • 180453Z 00000KT 10SM CLR 18/08 A3009 RMK AO2 SLP190 T01830078

EXPIRED METARs :
  • 180353Z VRB05KT 10SM CLR 19/08 A3009 RMK AO2 SLP188 T01890083
  • 180253Z 31007KT 10SM BKN230 21/08 A3008 RMK AO2 SLP186 T02060083 56014

TAF KBFI
Valid from the 18 at 06:00 until the 19 at 06:00 UTC


180537Z 1806/1906 29007KT P6SM BKN200
FM181100 VRB03KT P6SM SCT200
FM181800 29004KT P6SM BKN200
FM182300 31007KT P6SM BKN200
KZSE FIR / North America



MET'MAP, your aeronautical weather chart ! - Copyright ORBIFLY December 2007 - Disclaimer

ORBIFLY MET'MAP TEAM :

Programming & Development : Alexandra Zaïnal
Concept & original design : Baudouin d'Aumeries
Assistance for programming : Marc-Olivier Méhu
Technical & hardware support : Manuel Goepfert

Contact : metmap@orbifly.com




SOURCES & CREDITS :

   NOAA       Earth
Advisory